Regional Weather Roundup
Issued by NWS Goodland, KS

Home | Current Version | Previous Version | Graphics & Text | Print | Product List | Glossary On
Versions: 1 2 3 4 5 6 7 8 9 10 11 12 13 14 15 16 17 18 19 20 21 22 23 24 25 26 27 28 29 30 31 32 33 34 35 36 37 38 39 40 41 42 43 44 45 46 47 48 49 50
000
ASUS43 KGLD 221759
RWRGLD

GOODLAND FORECAST AREA HOURLY WEATHER ROUNDUP
NATIONAL WEATHER SERVICE GOODLAND KS
1200 PM MDT FRI MAY 22 2015

...OFFICIAL OBSERVATIONS...

CITY           SKY/WX    TMP DP  RH WIND       PRES   REMARKS
GOODLAND KS    LGT RAIN  49  48  97 SE22G31   30.07S FOG
HILL CITY KS   CLOUDY    53  48  83 SE10      30.16F
IMPERIAL NEB   LGT RAIN  50  47  89 SE18G24   30.10F
MCCOOK NEB     LGT RAIN  50  47  89 SE14      30.14F
AKRON CO       LGT RAIN  47  46  97 SE14      30.03S
BURLINGTON CO  CLOUDY    50  47  89 S24G32    30.03S
LIMON CO       CLOUDY    51  44  77 VRB6      30.02S
$$

...UNOFFICIAL OBSERVATIONS...

CITY           SKY/WX    TMP DP  RH WIND       PRES   REMARKS
GOVE KS          N/A     51  32  48 MISG        N/A
LENORA KS        N/A     50  32  50 MISG        N/A
SHARON SPRINGS   N/A     51  50  96 MISG        N/A
TRENTON NEB      N/A     49  32  52 SE15        N/A
KIT CARSON CO    N/A     55  51  86 MISG        N/A
YUMA CO          N/A     50  50  99 E13G20      N/A
$$


USA.gov is the U.S. government's official web portal to all federal, state and local government web resources and services.